| time (UTC) | temp F | wind direction | speed MPH | gust MPH | rain 1hr in | rain 24hr in | rain mn in | humidity % | barometer mb |
| 20260503221559 | 74 | 258 | 24.0 | 40.0 | 0.00 | 0.00 | 0.00 | 25 | 1003.6 |
| 20260503220054 | 73 | 266 | 28.0 | 36.0 | 0.00 | 0.00 | 0.00 | 24 | 1004.0 |
| 20260503214550 | 72 | 262 | 23.0 | 31.0 | 0.00 | 0.00 | 0.00 | 23 | 1004.4 |
| 20260503213049 | 72 | 254 | 23.0 | 34.0 | 0.00 | 0.00 | 0.00 | 23 | 1004.9 |
| 20260503211546 | 72 | 265 | 24.0 | 31.0 | 0.00 | 0.00 | 0.00 | 24 | 1005.1 |
| 20260503210043 | 72 | 250 | 25.0 | 32.0 | 0.00 | 0.00 | 0.00 | 28 | 1005.4 |
| 20260503204540 | 71 | 270 | 25.0 | 33.0 | 0.00 | 0.00 | 0.00 | 29 | 1005.6 |
| 20260503203043 | 71 | 250 | 24.0 | 31.0 | 0.00 | 0.00 | 0.00 | 29 | 1005.8 |
| 20260503201537 | 71 | 240 | 25.0 | 32.0 | 0.00 | 0.00 | 0.00 | 29 | 1006.0 |
| 20260503200035 | 71 | 250 | 22.0 | 31.0 | 0.00 | 0.00 | 0.00 | 28 | 1006.1 |
| 20260503194531 | 71 | 268 | 19.0 | 32.0 | 0.00 | 0.00 | 0.00 | 28 | 1006.5 |
| 20260503193028 | 71 | 274 | 25.0 | 32.0 | 0.00 | 0.00 | 0.00 | 28 | 1007.3 |
| 20260503191526 | 70 | 280 | 22.0 | 31.0 | 0.00 | 0.00 | 0.00 | 29 | 1007.5 |
| 20260503190025 | 70 | 262 | 24.0 | 32.0 | 0.00 | 0.00 | 0.00 | 31 | 1007.7 |
| 20260503184521 | 71 | 254 | 25.0 | 32.0 | 0.00 | 0.00 | 0.00 | 30 | 1008.1 |
| 20260503183017 | 70 | 229 | 18.0 | 34.0 | 0.00 | 0.00 | 0.00 | 33 | 1008.4 |
| 20260503181513 | 69 | 258 | 27.0 | 33.0 | 0.00 | 0.00 | 0.00 | 32 | 1008.9 |
| 20260503180009 | 68 | 240 | 26.0 | 37.0 | 0.00 | 0.00 | 0.00 | 34 | 1009.2 |
| 20260503174507 | 68 | 240 | 24.0 | 34.0 | 0.00 | 0.00 | 0.00 | 34 | 1009.7 |
| 20260503173005 | 67 | 240 | 21.0 | 31.0 | 0.00 | 0.00 | 0.00 | 35 | 1009.8 |
| 20260503171613 | 67 | 219 | 23.0 | 32.0 | 0.00 | 0.00 | 0.00 | 35 | 1010.0 |
| 20260503170105 | 67 | 255 | 21.0 | 33.0 | 0.00 | 0.00 | 0.00 | 35 | 1010.1 |
| 20260503081603 | 45 | 256 | 7.0 | 10.0 | 0.00 | 0.00 | 0.00 | 56 | 1014.7 |
| 20260503080109 | 46 | 245 | 7.0 | 9.0 | 0.00 | 0.00 | 0.00 | 55 | 1014.6 |
| 20260503071607 | 46 | 235 | 4.0 | 6.0 | 0.00 | 0.00 | 0.00 | 54 | 1014.7 |
| 20260503054553 | 48 | 284 | 3.0 | 4.0 | 0.00 | 0.00 | 0.00 | 49 | 1015.0 |
| 20260503053040 | 48 | 284 | 2.0 | 4.0 | 0.00 | 0.00 | 0.00 | 50 | 1014.9 |
| 20260503051538 | 48 | 284 | 2.0 | 3.0 | 0.00 | 0.00 | 0.00 | 49 | 1015.0 |
| 20260503050044 | 49 | 284 | 2.0 | 4.0 | 0.00 | 0.00 | 0.00 | 49 | 1015.1 |
| 20260503044548 | 49 | 285 | 3.0 | 4.0 | 0.00 | 0.00 | 0.00 | 48 | 1015.2 |
| 20260503043044 | 50 | 323 | 2.0 | 3.0 | 0.00 | 0.00 | 0.00 | 47 | 1015.2 |
| 20260503041535 | 50 | 7 | 2.0 | 4.0 | 0.00 | 0.00 | 0.00 | 47 | 1015.1 |
| 20260503040039 | 51 | 7 | 2.0 | 3.0 | 0.00 | 0.00 | 0.00 | 46 | 1015.1 |
| 20260503034535 | 52 | 7 | 2.0 | 3.0 | 0.00 | 0.00 | 0.00 | 45 | 1015.1 |
| 20260503033034 | 54 | 17 | 0.0 | 2.0 | 0.00 | 0.00 | 0.00 | 42 | 1015.1 |
| 20260503031535 | 55 | 18 | 3.0 | 5.0 | 0.00 | 0.00 | 0.00 | 41 | 1015.1 |
| 20260503030032 | 56 | 17 | 4.0 | 9.0 | 0.00 | 0.00 | 0.00 | 39 | 1015.0 |
| 20260503024532 | 57 | 4 | 7.0 | 9.0 | 0.00 | 0.00 | 0.00 | 38 | 1014.8 |
| 20260503023031 | 57 | 353 | 8.0 | 10.0 | 0.00 | 0.00 | 0.00 | 38 | 1014.7 |
| 20260503021531 | 57 | 354 | 8.0 | 10.0 | 0.00 | 0.00 | 0.00 | 38 | 1014.6 |
| 20260503020032 | 59 | 357 | 8.0 | 10.0 | 0.00 | 0.00 | 0.00 | 38 | 1014.6 |
| 20260503014531 | 60 | 357 | 7.0 | 9.0 | 0.00 | 0.00 | 0.00 | 37 | 1014.7 |
| 20260503013029 | 61 | 357 | 7.0 | 10.0 | 0.00 | 0.00 | 0.00 | 35 | 1014.8 |
| 20260503011532 | 61 | 353 | 6.0 | 14.0 | 0.00 | 0.00 | 0.00 | 35 | 1014.7 |
| 20260503010035 | 62 | 356 | 12.0 | 16.0 | 0.00 | 0.00 | 0.00 | 32 | 1014.8 |
| 20260503004528 | 62 | 349 | 15.0 | 20.0 | 0.00 | 0.00 | 0.00 | 32 | 1014.8 |
| 20260503003027 | 63 | 350 | 15.0 | 22.0 | 0.00 | 0.00 | 0.00 | 31 | 1014.8 |
| 20260503001529 | 63 | 352 | 15.0 | 22.0 | 0.00 | 0.00 | 0.00 | 31 | 1014.9 |
| 20260503000041 | 64 | 350 | 15.0 | 25.0 | 0.00 | 0.00 | 0.00 | 31 | 1014.9 |
| 20260502234525 | 64 | 348 | 20.0 | 28.0 | 0.00 | 0.00 | 0.00 | 29 | 1014.8 |
| 20260502233024 | 65 | 339 | 21.0 | 31.0 | 0.00 | 0.00 | 0.00 | 29 | 1014.8 |
| 20260502231525 | 65 | 338 | 15.0 | 25.0 | 0.00 | 0.00 | 0.00 | 30 | 1014.8 |
| 20260502230022 | 65 | 314 | 18.0 | 23.0 | 0.00 | 0.00 | 0.00 | 30 | 1014.7 |
| 20260502224521 | 65 | 341 | 17.0 | 29.0 | 0.00 | 0.00 | 0.00 | 29 | 1014.7 |
| 20260502223027 | 66 | 360 | 18.0 | 31.0 | 0.00 | 0.00 | 0.00 | 28 | 1014.7 |